QPF
0.00 0.00 0.00 0.00 0.00 0.00 0.00 0.00 0.00 0.00 0.00 0.00 0.00 0.00 0.00 0.00 0.02 0.06 0.08 0.10 0.09 0.07 0.01 0.02 0.05 0.03 0.01 0.00 0.01 0.05 0.09 0.13 0.07 0.04 0.04 0.04 0.08 0.09 0.01 0.00 0.02 0.01 0.01
0.00 0.00 0.00 0.00 0.00 0.00 0.00 0.00 0.00 0.00 0.00 0.00 0.00 0.00 0.00 0.00 0.03 0.04 0.07 0.06 0.08 0.11 0.04 0.00 0.04 0.04 0.02 0.05 0.08 0.05 0.05 0.08 0.08 0.01 0.00 0.00 0.01 0.02 0.00 0.00 0.01 0.02 0.00
0.00 0.00 0.00 0.00 0.00 0.00 0.00 0.00 0.00 0.00 0.00 0.00 0.00 0.00 0.01 0.04 0.04 0.11 0.07 0.01 0.00 0.08 0.06 0.00 0.01 0.06 0.03 0.05 0.06 0.05 0.05 0.08 0.07 0.00 0.00 0.00 0.01 0.01 0.00 0.01 0.03 0.02 0.05
0.00 0.00 0.00 0.00 0.00 0.00 0.00 0.00 0.00 0.00 0.00 0.00 0.00 0.01 0.05 0.03 0.02 0.02 0.01 0.02 0.04 0.09 0.05 0.01 0.02 0.03 0.04 0.03 0.01 0.01 0.05 0.08 0.01 0.00 0.00 0.00 0.01 0.02 0.01 0.02 0.06 0.04 0.08
0.00 0.00 0.00 0.00 0.00 0.00 0.00 0.00 0.00 0.00 0.00 0.00 0.01 0.04 0.03 0.02 0.00 0.03 0.07 0.03 0.01 0.05 0.03 0.03 0.03 0.07 0.06 0.00 0.01 0.00 0.01 0.01 0.00 0.00 0.01 0.01 0.00 0.03 0.05 0.05 0.01 0.04 0.07
0.00 0.00 0.00 0.00 0.00 0.00 0.00 0.00 0.00 0.00 0.01 0.01 0.00 0.01 0.02 0.00 0.00 0.00 0.02 0.01 0.01 0.00 0.01 0.04 0.03 0.04 0.00 0.00 0.00 0.00 0.00 0.00 0.00 0.00 0.00 0.00 0.00 0.03 0.08 0.03 0.00 0.02 0.07
0.00 0.00 0.00 0.00 0.00 0.01 0.00 0.00 0.00 0.01 0.05 0.04 0.03 0.00 0.00 0.00 0.00 0.00 0.00 0.00 0.01 0.00 0.00 0.00 0.00 0.00 0.00 0.00 0.00 0.00 0.00 0.00 0.00 0.00 0.00 0.00 0.00 0.00 0.01 0.00 0.00 0.01 0.00
0.00 0.00 0.00 0.00 0.00 0.00 0.00 0.00 0.01 0.02 0.03 0.07 0.03 0.00 0.00 0.00 0.00 0.00 0.00 0.00 0.01 0.00 0.00 0.00 0.00 0.00 0.00 0.00 0.00 0.00 0.00 0.00 0.00 0.00 0.00 0.00 0.00 0.00 0.01 0.00 0.00 0.00 0.00
0.00 0.00 0.00 0.00 0.00 0.00 0.00 0.00 0.01 0.01 0.00 0.05 0.01 0.00 0.00 0.00 0.00 0.00 0.00 0.02 0.02 0.01 0.00 0.00 0.00 0.00 0.00 0.00 0.00 0.00 0.00 0.00 0.00 0.00 0.00 0.00 0.00 0.01 0.02 0.00 0.00 0.00 0.00
0.00 0.00 0.00 0.00 0.00 0.00 0.00 0.00 0.02 0.02 0.00 0.01 0.00 0.00 0.00 0.00 0.00 0.00 0.01 0.01 0.00 0.01 0.01 0.00 0.00 0.00 0.00 0.00 0.00 0.00 0.00 0.00 0.00 0.00 0.00 0.00 0.00 0.03 0.03 0.01 0.00 0.00 0.00
0.00 0.00 0.00 0.00 0.00 0.01 0.04 0.05 0.04 0.04 0.02 0.01 0.01 0.01 0.00 0.00 0.00 0.00 0.00 0.00 0.00 0.00 0.00 0.00 0.00 0.00 0.00 0.00 0.00 0.00 0.00 0.00 0.00 0.00 0.00 0.00 0.02 0.03 0.02 0.00 0.01 0.00 0.00
0.00 0.00 0.00 0.00 0.00 0.02 0.07 0.07 0.05 0.05 0.06 0.02 0.01 0.01 0.00 0.00 0.00 0.00 0.00 0.00 0.00 0.00 0.00 0.00 0.00 0.01 0.02 0.01 0.00 0.00 0.00 0.00 0.00 0.00 0.00 0.00 0.01 0.01 0.00 0.01 0.01 0.00 0.00
0.00 0.00 0.00 0.00 0.00 0.03 0.08 0.13 0.09 0.09 0.06 0.04 0.04 0.02 0.00 0.00 0.00 0.00 0.00 0.00 0.00 0.00 0.00 0.00 0.01 0.02 0.02 0.00 0.00 0.00 0.00 0.00 0.00 0.00 0.01 0.01 0.00 0.01 0.02 0.01 0.01 0.00 0.00
0.00 0.00 0.00 0.00 0.00 0.03 0.05 0.08 0.10 0.09 0.07 0.04 0.03 0.02 0.00 0.00 0.00 0.00 0.00 0.00 0.00 0.00 0.00 0.01 0.01 0.01 0.00 0.00 0.00 0.00 0.01 0.01 0.00 0.01 0.02 0.01 0.01 0.01 0.01 0.00 0.00 0.00 0.00
0.00 0.00 0.00 0.00 0.00 0.04 0.05 0.07 0.09 0.07 0.04 0.04 0.02 0.01 0.00 0.00 0.00 0.00 0.00 0.00 0.00 0.00 0.00 0.00 0.00 0.00 0.00 0.01 0.01 0.03 0.04 0.02 0.02 0.02 0.01 0.00 0.00 0.00 0.00 0.00 0.00 0.00 0.00
0.00 0.00 0.00 0.00 0.00 0.00 0.00 0.01 0.00 0.00 0.00 0.00 0.01 0.00 0.00 0.01 0.00 0.00 0.00 0.00 0.00 0.00 0.00 0.00 0.00 0.00 0.00 0.01 0.02 0.02 0.03 0.02 0.02 0.01 0.00 0.00 0.00 0.00 0.00 0.00 0.00 0.00 0.00
0.00 0.00 0.00 0.00 0.00 0.00 0.00 0.02 0.02 0.00 0.00 0.00 0.00 0.00 0.00 0.00 0.00 0.00 0.00 0.00 0.00 0.00 0.00 0.00 0.00 0.00 0.00 0.00 0.00 0.00 0.00 0.01 0.00 0.00 0.00 0.00 0.00 0.00 0.00 0.00 0.00 0.00 0.00
0.00 0.00 0.00 0.00 0.00 0.00 0.00 0.00 0.00 0.01 0.01 0.00 0.00 0.00 0.00 0.00 0.00 0.00 0.00 0.00 0.00 0.00 0.00 0.00 0.00 0.00 0.00 0.00 0.00 0.00 0.00 0.00 0.00 0.00 0.00 0.00 0.00 0.00 0.00 0.00 0.00 0.00 0.00
0.00 0.00 0.00 0.00 0.00 0.00 0.00 0.00 0.00 0.00 0.01 0.01 0.00 0.00 0.00 0.00 0.00 0.00 0.00 0.00 0.00 0.00 0.00 0.00 0.00 0.00 0.00 0.00 0.00 0.00 0.00 0.00 0.00 0.00 0.00 0.00 0.00 0.00 0.00 0.00 0.00 0.00 0.00
0.00 0.00 0.00 0.00 0.00 0.00 0.00 0.00 0.00 0.00 0.00 0.00 0.00 0.00 0.00 0.00 0.00 0.00 0.00 0.00 0.00 0.00 0.00 0.00 0.00 0.00 0.00 0.00 0.00 0.00 0.00 0.00 0.00 0.00 0.00 0.00 0.00 0.00 0.00 0.00 0.00 0.00 0.00
0.00 0.00 0.00 0.00 0.00 0.00 0.00 0.00 0.00 0.00 0.00 0.00 0.00 0.00 0.00 0.00 0.00 0.00 0.00 0.00 0.00 0.00 0.00 0.00 0.00 0.00 0.00 0.00 0.00 0.00 0.00 0.00 0.00 0.00 0.00 0.00 0.00 0.00 0.00 0.00 0.00 0.00 0.00
0.00 0.00 0.00 0.00 0.00 0.00 0.00 0.00 0.00 0.00 0.00 0.00 0.00 0.00 0.00 0.00 0.00 0.00 0.00 0.00 0.00 0.00 0.00 0.00 0.00 0.00 0.00 0.00 0.00 0.00 0.00 0.00 0.00 0.00 0.00 0.00 0.00 0.00 0.00 0.00 0.00 0.00 0.00
0.00 0.00 0.00 0.00 0.00 0.00 0.00 0.00 0.00 0.00 0.00 0.00 0.00 0.00 0.00 0.00 0.00 0.00 0.00 0.00 0.00 0.00 0.00 0.00 0.00 0.00 0.00 0.00 0.00 0.00 0.00 0.00 0.00 0.00 0.00 0.00 0.00 0.00 0.00 0.00 0.00 0.00 0.00
0.00 0.00 0.00 0.00 0.00 0.00 0.00 0.00 0.00 0.00 0.00 0.00 0.00 0.00 0.00 0.00 0.00 0.00 0.00 0.00 0.00 0.00 0.00 0.00 0.00 0.00 0.00 0.00 0.00 0.00 0.00 0.00 0.00 0.00 0.00 0.00 0.00 0.00 0.00 0.00 0.00 0.00 0.00
0.03 0.01 0.00 0.00 0.00 0.00 0.00 0.00 0.00 0.00 0.00 0.00 0.00 0.00 0.00 0.00 0.00 0.00 0.00 0.00 0.00 0.00 0.00 0.00 0.00 0.00 0.00 0.00 0.00 0.00 0.00 0.00 0.00 0.00 0.00 0.00 0.00 0.00 0.00 0.00 0.00 0.00 0.00
0.01 0.02 0.02 0.02 0.03 0.02 0.01 0.01 0.00 0.00 0.00 0.00 0.00 0.00 0.00 0.00 0.00 0.00 0.00 0.00 0.00 0.00 0.00 0.00 0.00 0.00 0.00 0.00 0.00 0.00 0.00 0.00 0.00 0.00 0.00 0.00 0.00 0.00 0.00 0.00 0.00 0.00 0.00
MSLP
998.05 998.63 999.12 999.56 1000.12 1000.71 1001.31 1001.96 1002.59 1003.17 1003.68 1004.14 1004.59 1005.00 1005.33 1005.68 1006.03 1006.42 1006.59 1006.81 1007.00 1007.15 1007.22 1007.46 1007.66 1007.93 1007.73 1007.98 1008.29 1008.90 1009.42 1009.69 1009.78 1010.61 1010.85 1011.42 1011.55 1011.73 1011.99 1012.63 1013.09 1013.64 1014.64
998.51 999.06 999.70 1000.17 1000.71 1001.27 1001.80 1002.41 1002.95 1003.42 1003.79 1004.16 1004.52 1004.78 1005.07 1005.35 1005.84 1006.00 1006.02 1006.13 1006.65 1007.01 1006.90 1007.11 1007.27 1007.49 1007.62 1007.93 1008.33 1008.50 1008.78 1009.24 1009.46 1010.34 1011.70 1012.14 1012.22 1012.38 1012.80 1013.24 1013.65 1014.31 1014.97
998.97 999.67 1000.29 1000.78 1001.27 1001.78 1002.31 1002.79 1003.21 1003.62 1003.93 1004.21 1004.49 1004.61 1004.80 1005.07 1005.40 1005.61 1005.77 1006.13 1006.87 1006.80 1006.67 1006.63 1006.84 1007.25 1007.50 1007.92 1008.26 1008.41 1008.64 1009.19 1009.70 1010.69 1011.87 1012.54 1012.97 1013.11 1013.49 1014.00 1014.43 1015.08 1015.89
999.26 1000.01 1000.63 1001.20 1001.72 1002.23 1002.71 1003.14 1003.48 1003.76 1004.00 1004.30 1004.46 1004.49 1004.83 1005.13 1005.31 1005.61 1006.14 1005.99 1006.19 1006.32 1006.32 1006.25 1006.53 1006.78 1007.17 1007.85 1008.19 1008.30 1008.66 1009.26 1009.90 1011.14 1012.13 1012.73 1013.26 1013.77 1014.02 1014.41 1015.40 1016.00 1016.68
999.63 1000.32 1001.01 1001.62 1002.12 1002.56 1002.94 1003.32 1003.64 1003.92 1004.06 1004.15 1004.41 1004.84 1005.08 1005.24 1005.62 1005.86 1005.86 1006.00 1006.53 1006.40 1006.49 1006.33 1006.52 1006.97 1007.38 1008.18 1008.15 1008.50 1008.83 1009.49 1010.35 1011.37 1012.22 1012.96 1013.60 1013.96 1014.35 1014.99 1015.59 1016.54 1017.57
1000.05 1000.67 1001.31 1001.79 1002.28 1002.81 1003.22 1003.54 1003.86 1004.02 1004.10 1004.31 1004.56 1004.84 1005.23 1005.36 1006.83 1006.89 1006.78 1006.55 1006.38 1006.54 1006.58 1006.61 1007.33 1007.91 1008.38 1008.82 1008.94 1009.04 1009.21 1009.58 1010.33 1011.18 1012.16 1012.87 1013.63 1014.09 1014.75 1015.20 1015.88 1016.61 1017.83
1000.27 1000.82 1001.36 1001.93 1002.36 1002.91 1003.30 1003.66 1003.94 1004.22 1004.59 1004.83 1004.96 1005.17 1005.46 1006.04 1007.09 1007.24 1007.18 1007.06 1006.90 1007.03 1007.22 1007.47 1007.66 1008.25 1008.67 1009.07 1009.52 1009.73 1010.05 1010.15 1010.55 1011.15 1012.06 1012.79 1013.48 1014.01 1014.46 1015.47 1016.28 1016.85 1017.71
1000.24 1000.71 1001.41 1001.82 1002.46 1002.88 1003.35 1003.70 1004.21 1004.52 1004.96 1005.19 1005.25 1005.47 1005.74 1006.79 1007.37 1007.48 1007.37 1007.29 1007.59 1007.77 1007.74 1007.82 1007.95 1008.57 1008.82 1009.09 1009.53 1009.93 1010.39 1010.89 1011.32 1011.63 1012.63 1013.35 1014.00 1014.55 1014.90 1015.60 1016.34 1017.37 1018.41
1000.12 1000.83 1001.32 1001.79 1002.36 1002.88 1003.32 1003.96 1004.35 1004.81 1005.11 1005.32 1005.32 1005.59 1006.03 1006.91 1007.75 1007.74 1007.67 1007.82 1008.02 1008.32 1008.54 1008.50 1008.60 1008.85 1009.39 1009.48 1009.44 1010.20 1011.01 1011.85 1012.11 1012.41 1013.24 1014.07 1014.76 1015.18 1015.27 1015.79 1016.92 1017.54 1018.46
1000.25 1000.82 1001.25 1001.85 1002.50 1002.94 1003.52 1004.04 1004.47 1004.89 1005.14 1005.08 1005.54 1006.02 1006.94 1007.10 1007.92 1007.95 1007.89 1008.09 1008.36 1008.76 1008.98 1009.24 1009.54 1009.71 1009.99 1010.09 1010.26 1010.83 1011.54 1012.23 1012.87 1013.81 1014.61 1015.23 1015.46 1015.98 1016.09 1016.32 1016.68 1017.38 1017.94
1000.12 1000.83 1001.47 1002.08 1002.65 1003.17 1003.78 1004.28 1004.67 1004.87 1004.94 1005.40 1005.71 1006.23 1007.00 1007.39 1008.09 1008.23 1008.34 1008.33 1008.61 1009.00 1009.43 1009.83 1010.26 1010.47 1010.73 1010.79 1010.93 1011.32 1012.14 1012.77 1013.50 1014.07 1014.80 1015.46 1016.05 1016.32 1016.51 1016.75 1016.94 1016.98 1017.28
1000.45 1001.04 1001.75 1002.45 1002.64 1003.53 1004.14 1004.53 1004.69 1004.89 1005.30 1005.57 1005.86 1006.28 1007.22 1007.75 1008.33 1008.55 1008.64 1008.61 1008.94 1009.03 1009.77 1010.35 1010.89 1011.02 1011.24 1011.51 1011.65 1012.32 1012.84 1013.29 1013.81 1014.33 1014.95 1015.49 1015.97 1016.22 1016.42 1016.27 1016.45 1016.52 1016.57
1000.64 1001.31 1001.94 1002.51 1002.84 1003.52 1004.20 1004.54 1004.79 1005.11 1005.23 1005.53 1005.47 1005.98 1007.25 1008.10 1008.75 1008.97 1009.16 1009.19 1009.35 1009.58 1010.32 1011.01 1011.31 1011.46 1011.69 1012.10 1012.47 1012.93 1013.23 1013.59 1013.98 1014.36 1014.81 1015.23 1015.43 1015.70 1015.87 1016.47 1016.70 1016.84 1017.06
1000.93 1001.46 1002.08 1002.45 1002.94 1003.63 1004.11 1004.47 1004.75 1005.04 1005.28 1005.26 1005.32 1005.79 1007.05 1008.21 1008.80 1009.32 1009.66 1009.78 1010.02 1010.54 1011.23 1011.58 1011.69 1011.74 1011.94 1012.53 1012.94 1013.11 1012.88 1013.22 1013.45 1013.72 1014.19 1014.67 1015.16 1015.68 1015.94 1016.24 1016.50 1016.73 1016.20
1000.93 1001.71 1002.00 1002.63 1002.86 1003.88 1004.32 1005.28 1005.09 1005.27 1005.77 1005.58 1005.51 1005.46 1006.86 1008.05 1008.72 1009.11 1009.52 1009.83 1009.86 1010.47 1010.91 1011.34 1011.52 1011.82 1012.28 1012.60 1012.70 1012.76 1012.54 1012.86 1012.92 1013.32 1013.74 1014.26 1014.71 1014.87 1014.96 1015.31 1015.48 1015.91 1015.72
1000.71 1001.16 1001.45 1002.06 1002.64 1003.12 1004.10 1005.35 1006.22 1006.43 1006.45 1006.24 1006.23 1006.12 1006.69 1007.43 1008.78 1009.35 1009.75 1010.07 1010.43 1010.81 1010.62 1010.51 1010.88 1011.36 1011.65 1011.68 1011.79 1012.10 1012.14 1012.73 1012.97 1013.16 1013.31 1013.43 1013.70 1014.03 1014.27 1014.76 1014.85 1015.05 1015.23
1000.34 1000.84 1001.50 1001.68 1002.10 1002.72 1003.40 1004.26 1005.48 1007.01 1007.22 1007.27 1007.36 1007.38 1007.42 1008.44 1009.21 1009.76 1010.05 1010.46 1010.76 1010.89 1010.57 1010.38 1010.57 1010.92 1011.09 1011.18 1011.09 1011.36 1011.56 1012.20 1012.18 1012.24 1012.53 1012.80 1013.10 1013.41 1014.03 1014.24 1014.37 1014.57 1014.69
1000.46 1001.08 1001.11 1001.17 1001.64 1002.24 1002.92 1003.27 1003.92 1005.22 1006.07 1007.18 1008.27 1008.43 1008.82 1009.18 1009.58 1009.96 1010.46 1010.98 1011.31 1011.07 1010.77 1010.56 1010.50 1010.37 1010.32 1010.40 1010.56 1010.55 1010.95 1011.44 1011.74 1011.82 1012.18 1012.53 1012.87 1013.14 1013.63 1013.64 1013.77 1013.91 1013.97
1000.52 1000.83 1000.79 1001.12 1001.44 1001.90 1002.66 1002.92 1003.28 1003.89 1005.05 1006.03 1007.74 1008.93 1009.75 1010.09 1010.31 1010.40 1010.46 1010.36 1010.46 1010.33 1010.07 1010.26 1009.95 1009.96 1010.04 1010.28 1010.45 1010.49 1010.68 1011.00 1011.46 1011.71 1012.00 1012.30 1012.61 1012.80 1012.93 1013.15 1013.08 1013.39 1013.52
1000.76 1001.19 1001.17 1001.22 1001.76 1002.08 1002.39 1002.69 1003.02 1003.62 1004.21 1005.06 1006.04 1007.54 1009.22 1009.91 1010.21 1010.51 1009.91 1009.50 1009.46 1009.44 1009.64 1009.72 1009.95 1010.05 1009.90 1009.93 1010.09 1010.38 1010.45 1010.98 1011.39 1011.48 1011.59 1011.86 1012.14 1012.35 1012.31 1012.41 1012.51 1012.56 1012.86
1000.34 1001.46 1001.59 1001.40 1001.61 1001.86 1002.05 1002.34 1002.85 1003.30 1003.71 1004.38 1005.14 1006.92 1007.77 1008.20 1008.27 1008.71 1008.56 1008.12 1008.04 1007.98 1008.09 1008.19 1008.56 1008.99 1009.29 1009.67 1009.77 1009.93 1010.37 1010.43 1010.75 1011.01 1011.08 1011.31 1011.53 1011.65 1011.83 1011.76 1011.78 1011.88 1011.85
1000.54 1000.88 1001.41 1001.28 1001.56 1002.04 1002.20 1002.45 1002.72 1003.13 1003.50 1004.03 1004.82 1007.19 1007.79 1007.88 1006.91 1007.19 1007.29 1007.19 1007.24 1007.33 1007.48 1007.92 1007.95 1008.25 1008.46 1008.70 1009.05 1009.31 1009.69 1010.11 1010.27 1010.23 1010.37 1010.52 1010.64 1010.83 1010.94 1010.92 1011.00 1011.03 1011.05
1001.66 1001.25 1001.43 1001.53 1001.91 1002.66 1002.98 1002.78 1002.93 1003.18 1003.39 1003.89 1004.41 1006.37 1007.60 1007.11 1006.09 1005.90 1006.14 1006.61 1006.92 1007.04 1007.17 1007.41 1007.70 1007.76 1008.00 1008.22 1008.39 1008.69 1008.85 1009.08 1009.35 1009.59 1009.62 1009.79 1009.89 1009.93 1010.01 1010.04 1010.08 1010.04 1010.03
1002.93 1002.83 1002.84 1002.73 1002.54 1002.75 1002.95 1003.33 1003.52 1004.18 1003.98 1003.92 1004.65 1005.09 1006.02 1006.30 1006.05 1005.84 1005.93 1006.06 1006.41 1006.73 1007.00 1007.14 1007.34 1007.42 1007.49 1007.74 1007.90 1008.19 1008.29 1008.34 1008.39 1008.46 1008.84 1008.85 1008.89 1008.94 1009.13 1008.92 1008.89 1008.92 1009.01
1005.99 1005.99 1006.16 1006.39 1006.41 1006.18 1005.61 1005.50 1005.49 1005.50 1005.69 1005.79 1005.80 1005.98 1006.00 1006.20 1006.13 1006.18 1006.40 1006.54 1006.64 1006.72 1006.87 1007.03 1007.16 1007.20 1007.41 1007.59 1007.51 1007.40 1007.60 1008.28 1008.51 1008.50 1008.13 1008.23 1008.32 1008.28 1008.06 1007.77 1007.82 1007.88 1007.81
1008.12 1007.96 1008.44 1008.65 1008.59 1008.75 1008.97 1009.11 1009.26 1009.40 1009.72 1009.82 1009.77 1009.68 1009.48 1009.48 1009.42 1009.49 1009.74 1009.41 1008.60 1007.86 1007.66 1007.52 1007.43 1007.37 1007.70 1008.83 1010.12 1010.03 1009.30 1009.26 1009.19 1009.24 1008.83 1008.35 1007.96 1007.38 1007.18 1007.07 1007.06 1006.98 1006.68
Thickness
5736 5733 5729 5724 5719 5714 5708 5703 5697 5692 5687 5682 5677 5672 5668 5664 5661 5655 5652 5648 5644 5642 5641 5637 5635 5633 5635 5635 5633 5629 5627 5629 5627 5626 5628 5629 5632 5634 5635 5634 5635 5634 5632
5728 5724 5718 5715 5710 5704 5699 5694 5690 5685 5682 5677 5673 5670 5667 5663 5658 5655 5653 5651 5643 5638 5639 5637 5636 5636 5635 5636 5634 5634 5634 5634 5634 5628 5620 5622 5626 5630 5631 5630 5631 5629 5628
5719 5714 5708 5704 5700 5694 5689 5686 5683 5678 5675 5673 5670 5668 5666 5663 5659 5656 5652 5647 5638 5638 5638 5640 5639 5636 5635 5635 5634 5635 5636 5634 5633 5626 5620 5621 5621 5624 5626 5625 5626 5623 5621
5712 5707 5701 5697 5692 5687 5683 5678 5675 5673 5670 5668 5667 5667 5664 5661 5658 5653 5646 5646 5642 5639 5640 5643 5642 5640 5638 5635 5634 5635 5635 5633 5632 5624 5619 5620 5619 5620 5622 5622 5617 5616 5614
5704 5699 5694 5689 5685 5680 5675 5672 5669 5667 5666 5666 5664 5661 5659 5658 5653 5649 5647 5643 5636 5637 5638 5641 5642 5639 5636 5634 5636 5634 5633 5630 5627 5621 5618 5617 5616 5619 5619 5617 5617 5612 5607
5697 5692 5688 5684 5679 5673 5669 5665 5663 5661 5661 5661 5659 5657 5655 5654 5637 5635 5636 5637 5637 5636 5636 5638 5634 5630 5629 5628 5629 5631 5633 5631 5627 5624 5619 5617 5615 5616 5615 5616 5614 5613 5606
5691 5688 5684 5679 5674 5669 5666 5663 5660 5657 5655 5653 5653 5653 5651 5646 5634 5632 5631 5633 5633 5632 5631 5630 5629 5628 5627 5627 5623 5624 5624 5626 5627 5626 5621 5619 5617 5618 5618 5614 5612 5610 5607
5688 5686 5680 5677 5671 5668 5664 5661 5657 5654 5650 5648 5649 5649 5648 5639 5631 5629 5630 5631 5628 5626 5627 5628 5628 5625 5627 5628 5626 5624 5623 5623 5622 5622 5618 5616 5614 5613 5613 5610 5609 5605 5601
5686 5681 5678 5675 5670 5665 5661 5657 5654 5650 5648 5647 5648 5647 5644 5637 5627 5627 5629 5627 5625 5621 5620 5622 5624 5625 5621 5624 5628 5623 5619 5616 5617 5618 5615 5613 5611 5611 5611 5608 5603 5603 5597
5682 5679 5679 5674 5667 5662 5657 5653 5651 5649 5648 5652 5647 5643 5635 5635 5626 5626 5628 5626 5622 5617 5616 5616 5616 5619 5617 5621 5624 5621 5617 5614 5614 5610 5608 5606 5606 5605 5607 5608 5607 5602 5602
5685 5679 5675 5669 5663 5659 5654 5650 5648 5648 5650 5647 5645 5642 5637 5634 5627 5625 5626 5625 5621 5617 5614 5613 5612 5611 5613 5617 5621 5620 5615 5613 5609 5609 5607 5605 5603 5605 5606 5606 5607 5608 5607
5680 5675 5670 5664 5663 5655 5649 5647 5648 5648 5646 5645 5644 5644 5637 5633 5626 5624 5625 5625 5622 5622 5616 5613 5609 5609 5611 5613 5616 5610 5609 5609 5608 5607 5606 5605 5606 5607 5608 5610 5613 5616 5617
5676 5671 5668 5664 5661 5655 5648 5646 5646 5647 5647 5646 5649 5646 5638 5632 5627 5622 5623 5625 5624 5624 5617 5609 5607 5609 5610 5609 5609 5608 5608 5608 5607 5607 5606 5607 5610 5613 5613 5614 5616 5617 5618
5671 5669 5667 5664 5659 5654 5651 5651 5649 5648 5648 5650 5652 5651 5642 5633 5629 5627 5626 5626 5623 5621 5613 5612 5611 5613 5614 5611 5609 5610 5616 5615 5615 5615 5614 5615 5615 5614 5616 5618 5618 5619 5625
5671 5667 5667 5662 5660 5650 5651 5647 5650 5650 5649 5654 5656 5658 5646 5637 5634 5631 5630 5629 5631 5625 5623 5620 5618 5616 5615 5616 5618 5619 5624 5622 5622 5621 5621 5620 5620 5624 5627 5628 5629 5626 5629
5673 5672 5671 5667 5662 5658 5653 5648 5635 5637 5640 5644 5646 5652 5650 5643 5632 5629 5628 5625 5625 5623 5628 5630 5627 5623 5622 5626 5628 5627 5629 5625 5625 5627 5629 5631 5632 5633 5633 5632 5634 5633 5633
5677 5676 5672 5670 5667 5661 5658 5655 5649 5639 5634 5636 5638 5639 5642 5636 5630 5627 5626 5624 5623 5624 5631 5634 5632 5630 5629 5630 5634 5634 5635 5633 5637 5639 5639 5639 5640 5640 5635 5636 5638 5637 5637
5679 5675 5677 5678 5674 5668 5663 5664 5662 5654 5651 5646 5633 5633 5631 5630 5629 5628 5626 5624 5624 5626 5630 5633 5635 5638 5640 5641 5642 5644 5643 5641 5641 5643 5642 5641 5641 5641 5638 5640 5642 5642 5642
5679 5680 5682 5681 5679 5675 5669 5669 5668 5666 5658 5653 5642 5633 5626 5624 5624 5625 5627 5633 5632 5634 5638 5636 5642 5643 5645 5645 5645 5647 5648 5647 5645 5645 5645 5644 5644 5644 5644 5644 5647 5641 5641
5678 5673 5677 5681 5677 5676 5675 5673 5672 5669 5667 5664 5659 5650 5635 5633 5635 5630 5637 5641 5641 5642 5641 5642 5643 5644 5647 5649 5650 5649 5650 5647 5645 5646 5647 5647 5647 5647 5648 5648 5649 5648 5646
5682 5675 5674 5681 5680 5679 5680 5679 5676 5674 5673 5672 5671 5662 5647 5654 5652 5647 5649 5653 5654 5656 5656 5657 5656 5654 5653 5651 5652 5652 5650 5651 5651 5650 5651 5651 5651 5650 5650 5651 5652 5651 5651
5680 5679 5678 5681 5682 5678 5679 5681 5680 5678 5677 5676 5676 5660 5647 5658 5667 5662 5661 5662 5663 5664 5664 5661 5662 5661 5661 5661 5659 5658 5655 5653 5653 5655 5655 5656 5656 5655 5655 5654 5654 5653 5653
5669 5674 5676 5678 5679 5671 5673 5679 5680 5680 5680 5680 5680 5667 5659 5664 5673 5674 5671 5669 5668 5668 5669 5668 5665 5665 5665 5664 5663 5662 5660 5659 5659 5659 5659 5658 5658 5658 5657 5656 5657 5657 5657
5657 5660 5662 5666 5671 5673 5674 5672 5674 5667 5675 5679 5676 5676 5670 5668 5669 5671 5672 5674 5672 5671 5670 5670 5668 5668 5668 5666 5665 5663 5662 5663 5663 5663 5661 5661 5661 5661 5659 5661 5661 5660 5659
5625 5628 5629 5631 5634 5638 5647 5652 5655 5658 5659 5662 5664 5665 5667 5666 5665 5665 5665 5666 5667 5667 5667 5666 5665 5665 5663 5662 5663 5665 5665 5662 5659 5660 5662 5663 5662 5663 5664 5666 5665 5663 5663
5603 5604 5604 5606 5610 5612 5612 5613 5616 5618 5616 5618 5621 5624 5627 5629 5631 5631 5631 5635 5643 5651 5654 5656 5657 5655 5653 5647 5642 5644 5650 5651 5649 5648 5649 5655 5659 5664 5665 5664 5663 5663 5664